Regional Weather Roundup
Issued by NWS

Home | Current Version | Previous Version | Text Only | Print | Product List | Glossary Off
Versions: 1 2 3 4 5 6 7 8 9 10 11 12 13 14 15 16 17 18 19 20 21 22 23 24 25 26 27 28 29 30 31 32 33 34 35 36 37 38 39 40 41 42 43 44 45 46 47 48 49 50

000
ASUS43 KLMK 050902
RWRKY
KENTUCKY REGIONAL WEATHER ROUNDUP
NATIONAL WEATHER SERVICE LOUISVILLE KY
500 AM EDT THU MAY 05 2016

NOTE "FAIR" INDICATES FEW OR NO CLOUDS BELOW 12,000 FEET
WITH NO SIGNIFICANT WEATHER AND/OR OBSTRUCTIONS TO VISIBILITY.

KYZ001>023-026-027-061>063-070>075-051000-
WESTERN AND SOUTH CENTRAL KENTUCKY

CITY           SKY/WX    TMP DP  RH WIND       PRES   REMARKS
PADUCAH        CLEAR     45  41  86 W5        29.83S
HENDERSON      CLEAR     48  39  71 W7        29.79S
OWENSBORO      PTCLDY    48  44  86 W6        29.79S
HOPKINSVILLE   PTCLDY    44  41  90 SW7       29.81F
BOWLING GREEN  CLOUDY    48  42  80 W6        29.78F
GLASGOW        NOT AVBL
$$

KYZ024-025-028>034-038-045-046-053-051000-
NORTH CENTRAL KENTUCKY

CITY           SKY/WX    TMP DP  RH WIND       PRES   REMARKS
LOUISVILLE/SDF LGT RAIN  47  42  83 NW7       29.75F
LOUISVILLE/LOU LGT RAIN  47  42  83 W7        29.75F
FORT KNOX      LGT RAIN  46  42  88 NW3       29.74S
$$

KYZ035>037-039>044-047>052-055>060-089>105-051000-
NORTHEAST KENTUCKY

CITY           SKY/WX    TMP DP  RH WIND       PRES   REMARKS
LEXINGTON      LGT RAIN  45  39  79 W6        29.72F
COVINGTON      LGT RAIN  42  40  92 N6        29.72R
FRANKFORT      LGT RAIN  46  38  73 W5        29.72S
$$

KYZ054-064>069-076>088-106>120-051000-
SOUTHEAST KENTUCKY

CITY           SKY/WX    TMP DP  RH WIND       PRES   REMARKS
JACKSON        CLOUDY    42  39  89 CALM      29.72S
LONDON         CLEAR     42  39  89 W3        29.74S
SOMERSET       NOT AVBL
MIDDLESBORO    NOT AVBL
MONTICELLO     CLOUDY    45  43  93 W6        29.78S
$$




USA.gov is the U.S. government's official web portal to all federal, state and local government web resources and services.